Regional Weather Roundup
Issued by NWS

Home | Current Version | Previous Version | Graphics & Text | Print | Product List | Glossary On
Versions: 1 2 3 4 5 6 7 8 9 10 11 12 13 14 15 16 17 18 19 20 21 22 23 24 25 26 27 28 29 30 31 32 33 34 35 36 37 38 39 40 41 42 43 44 45 46 47 48 49 50
000
ASUS43 KMPX 030401
RWRMN
WEATHER ROUNDUP FOR MINNESOTA
NATIONAL WEATHER SERVICE TWIN CITIES/CHANHASSEN MN
1100 PM CDT SAT MAY 02 2015


NOTE: "FAIR" INDICATES FEW OR NO CLOUDS BELOW 12,000 FEET WITH NO
SIGNIFICANT WEATHER AND/OR OBSTRUCTIONS TO VISIBILITY. N/A MEANS
CURRENT SKY AND/OR WEATHER CONDITIONS ARE NOT AVAILABLE.

MNZ060>063-068>070-030500-
   Twin Cities Metro

CITY           SKY/WX    TMP DP  RH WIND       PRES   REMARKS
TWIN CITIES    PTCLDY    71  50  47 S12G21    29.77S
ST PAUL        CLEAR     67  49  52 S9        29.77S
CRYSTAL        PTCLDY    71  49  45 S15       29.75R
BLAINE         CLEAR     72  50  46 S14       29.75F
LAKEVILLE      CLEAR     66  52  59 S10       29.79S
EDEN PRAIRIE   CLEAR     69  50  50 S14G23    29.76S
SOUTH ST PAUL  CLEAR     69  48  48 S9        29.77S
LAKE ELMO      FAIR      66  50  55 S10       29.79S
$$
MNZ001>005-007-008-013>017-022>024-027-028-030500-
   Northwest Minnesota

CITY           SKY/WX    TMP DP  RH WIND       PRES   REMARKS
BEMIDJI        MOCLDY    62  45  53 S9        29.65F
HALLOCK        PTCLDY    63  43  48 W8        29.61R
ROSEAU         MOCLDY    63  45  51 SW7       29.60S
WARROAD        MOCLDY    63  46  55 SW5       29.60F
THIEF RVR FALL PTCLDY    63  46  55 SE9       29.61R
CROOKSTON      PTCLDY    63  46  55 S10       29.60S
MOORHEAD       PTCLDY    61  52  72 SE14      29.62R
PARK RAPIDS    MOCLDY    60  49  66 S10       29.68F
MAHNOMEN       FAIR      62  47  57 SE15G21   29.61F
$$
MNZ006-009>011-018-025>026-030500-
   North Central Minnesota

CITY           SKY/WX    TMP DP  RH WIND       PRES   REMARKS
BAUDETTE       MOCLDY    66  43  43 SW7       29.62R
FLAG ISLAND    LGT RAIN  57  48  72 NW9       29.62R
INTL FALLS     CLOUDY    69  34  27 S5        29.62F
WASKISH        MOCLDY    68  43  40 S13G20    29.61F
BIG FORK       CLOUDY    63  37  39 S5        29.66F
LONGVILLE      CLOUDY    66  39  37 S9        29.68F
GRAND RAPIDS   CLOUDY    66  39  37 SW9       29.70R
CRANE LAKE     CLOUDY    64  34  32 S3        29.68F
ORR            CLOUDY    64  30  27 CALM      29.65F
COOK           CLOUDY    66  37  34 S5        29.68F
WALKER         FAIR      65  42  43 S8        29.66F
$$
MNZ012-019>021-037-030500-
   Northeast Minnesota

CITY           SKY/WX    TMP DP  RH WIND       PRES   REMARKS
DULUTH         MOCLDY    56  43  61 SE8       29.74F
ELY            MOCLDY    61  37  41 S6        29.72F
HIBBING        CLOUDY    65  38  36 VRB6      29.69F
EVELETH        CLOUDY    63  37  39 SE6       29.71F
DULUTH HARBOR  MOCLDY    45  41  87 N6        29.75F
TWO HARBORS    PTCLDY    52  45  76 CALM      29.73F
SILVER BAY     PTCLDY    46  41  81 CALM      29.73F
GRAND MARAIS     N/A     42  38  85 CALM      29.75F
G MARAIS ARPRT PTCLDY    46  37  71 CALM      29.78F
$$
MNZ029>031-032-039>041-046>048-054>057-064-030500-
   West Central Minnesota

CITY           SKY/WX    TMP DP  RH WIND       PRES   REMARKS
FERGUS FALLS   MOCLDY    63  52  67 SE13      29.67S
WHEATON        CLOUDY    63  48  59 E15       29.68F
MORRIS         MOCLDY    64  52  63 E12       29.69S
ALEXANDRIA     CLOUDY    61  52  72 E9        29.72F
ELBOW LAKE     RAIN      61  53  75 E3        29.72R
WADENA         MOCLDY    61  48  63 SE15      29.70F
GLENWOOD       MOCLDY    63  52  67 N9        29.74F
APPLETON       PTCLDY    68  43  40 NE6       29.68R
BENSON         PTCLDY    64  48  55 E9G16     29.72S
ORTONVILLE     MOCLDY    68  45  42 SE5       29.67R
MADISON        PTCLDY    66  43  42 S10       29.67S
WILLMAR        FAIR      70  50  49 CALM      29.74R
$$
MNZ033>034-036-042>043-049>051-058-059-030500-
   Central Minnesota

CITY           SKY/WX    TMP DP  RH WIND       PRES   REMARKS
ST CLOUD       PTCLDY    63  47  55 S8        29.72S
SAUK CENTRE    FAIR      62  51  66 N13G18    29.75S
PAYNESVILLE    PTCLDY    66  46  47 SW12G18   29.76R
AITKIN         CLOUDY    61  43  51 CALM      29.71S
PINE RIVER     CLOUDY    64  46  52 S7        29.75F
BRAINERD       LGT RAIN  67  45  45 NW8       29.77R
STAPLES        RAIN      57  52  82 NW12      29.81R
LONG PRAIRIE   MOCLDY    59  52  77 N13G18    29.75F
LITTLE FALLS   MOCLDY    66  41  39 NW15G29   29.74R
LITCHFIELD     CLEAR     70  50  49 S3        29.74S
BUFFALO        PTCLDY    70  49  47 S10       29.76R
MAPLE LAKE     PTCLDY    70  51  52 S6        29.75R
$$
MNZ037-044-045-052-053-030500-
   East Central Minnesota

CITY           SKY/WX    TMP DP  RH WIND       PRES   REMARKS
PRINCETON      CLEAR     66  46  48 SE6       29.74S
MORA           PTCLDY    54  43  66 CALM      29.75F
CAMBRIDGE      CLEAR     70  48  46 S5        29.73S
RUSH CITY      MOCLDY    63  43  48 S3        29.74F
MOOSE LAKE     MOCLDY    55  43  62 CALM      29.71F
HINCKLEY       FAIR      54  45  71 CALM      29.74F
CLOQUET        MOCLDY    54  43  66 SE3       29.73F
MCGREGOR       CLOUDY    63  43  48 S6        29.73S
$$
MNZ071>073-080-081-089-090-097-098-030500-
   Southwest Minnesota

CITY           SKY/WX    TMP DP  RH WIND       PRES   REMARKS
MONTEVIDEO     PTCLDY    70  50  49 SW12G18   29.69S
GRANITE FALLS  CLEAR     67  50  53 S16       29.71F
CANBY          CLEAR     68  48  48 S10G16    29.69F
MARSHALL       CLEAR     66  48  52 S17       29.71F
REDWOOD FALLS  CLEAR     69  51  52 S17       29.73F
OLIVIA         CLEAR     68  50  52 S12       29.73S
PIPESTONE      CLEAR     64  52  63 S12       29.75S
WORTHINGTON    CLEAR     63  52  67 S15       29.78S
JACKSON        CLEAR     63  52  67 S12G20    29.80S
TRACY          CLEAR     66  52  60 S12       29.75S
SLAYTON        CLEAR     60  50  69 SE12      29.77S
$$
MNZ065>067-074>077-082>085-091>093-030500-
   South Central Minnesota

CITY           SKY/WX    TMP DP  RH WIND       PRES   REMARKS
MANKATO        CLEAR     64  48  55 S15       29.80S
NEW ULM        CLEAR     64  52  63 S14       29.77S
ST JAMES       CLEAR     64  54  68 S16       29.80R
FAIRMONT       CLEAR     63  46  55 S18       29.80F
GLENCOE        CLEAR     68  54  60 S12G17    29.76R
FARIBAULT      CLEAR     66  52  59 S13G20    29.82R
OWATONNA       CLEAR     64  50  59 S15       29.82S
WASECA         CLEAR     63  50  63 S16       29.83S
ALBERT LEA     CLEAR     63  52  67 S13G18    29.84S
$$
MNZ078>079-086>088-094>096-030500-
   Southeast Minnesota

CITY           SKY/WX    TMP DP  RH WIND       PRES   REMARKS
ROCHESTER      CLEAR     61  49  64 S13       29.86S
RED WING       CLEAR     70  48  46 SW12G20   29.80R
STANTON        CLEAR     67  50  53 S9G17     29.80R
DODGE CENTER   PTCLDY    63  52  67 S16       29.85R
WINONA         CLEAR     70  52  52 SW12      29.85R
AUSTIN         CLEAR     61  50  67 S8        29.86S
PRESTON        CLEAR     60  50  68 S10       29.88S
$$
ABBREVIATIONS USED IN REMARKS
   TC - TEMPERATURES IN CELSIUS
  WCI - WIND CHILL INDEX
   HX - HEAT INDEX
  VSB - VISIBILITY
$$


USA.gov is the U.S. government's official web portal to all federal, state and local government web resources and services.